Location: Arrington
(35.8681°N, 86.7092°W)
Time: 15:42:13
(UTC+00:00)

DELTA 2 R/B (1) - Pass Details

Date: 23 November 2019
Orbit: 791 x 802 km, 39.6° (Epoch: 14 December)

Event Time Altitude Azimuth Distance (km) Brightness Sun altitude
Rises 00:58:33 0° 274° (W) 3,298 8.0 -28.7°
Reaches altitude 10° 01:01:05 10° 279° (W) 2,369 6.9 -29.2°
Enters shadow 01:05:43 52° 320° (NW) 986 4.1 -30.1°
